Location: Newark
(46.7000°N, 60.6000°W)
Time: 23:38:29
(UTC+00:00)

Transit 2A Rocket - Pass Details

Date: 27 October 2020
Orbit: 588 x 915 km, 66.7° (Epoch: 24 November)

Event Time Altitude Azimuth Distance (km) Brightness Sun altitude
Rises 21:46:00 0° 328° (NNW) 3,340 8.6 -9.5°
Reaches altitude 10° 21:48:38 10° 334° (NNW) 2,352 7.8 -10.0°
Maximum altitude 21:53:51 50° 49° (NE) 936 5.1 -10.8°
Drops below altitude 10° 21:58:33 10° 125° (SE) 2,128 6.9 -11.6°
Enters shadow 21:59:12 - 127° (SE) 2,373 7.1 -11.8°
